Location: Unspecified
(0.0000°N, 0.0000°E)
Time: 18:26:11
(UTC+00:00)

A-11 Canister half - Visible Passes

Search period start: 25 August 2016 00:00
Search period end: 04 September 2016 00:00
Orbit: 1524 x 1685 km, 47.3° (Epoch: 24 August)

Date Brightness Start Highest point End Pass type
(mag) Time Alt. Az. Time Alt. Az. Time Alt. Az.
25 Aug 11.0 03:10:31 10° N 03:17:34 21° NE 03:24:27 10° E visible
25 Aug 9.1 05:12:46 10° NW 05:22:47 81° SW 05:32:30 10° SE visible
26 Aug 11.0 02:49:13 10° N 02:55:54 20° NE 03:02:28 10° E visible
26 Aug 9.1 04:51:09 10° NW 05:01:13 86° SW 05:10:57 10° SE visible
27 Aug 11.0 02:27:58 10° N 02:34:15 18° NE 02:40:25 10° E visible
27 Aug 9.1 04:29:32 10° NW 04:39:36 89° NE 04:49:23 10° SE visible
28 Aug 11.0 02:08:02 12° NNE 02:12:35 17° NE 02:18:18 10° E visible
28 Aug 9.1 04:07:55 10° NW 04:18:01 84° NE 04:27:48 10° SE visible
29 Aug 11.1 01:51:04 15° NE 01:51:04 15° NE 01:56:08 10° ENE visible
29 Aug 9.1 03:49:36 24° NNW 03:56:25 79° NE 04:06:13 10° SE visible
30 Aug 11.3 01:33:09 11° ENE 01:33:09 11° ENE 01:33:51 10° ENE visible
30 Aug 9.1 03:31:38 49° NNW 03:34:49 74° NE 03:44:37 10° SE visible
30 Aug 10.0 05:32:28 10° W 05:39:51 23° SW 05:47:07 10° S visible
31 Aug 9.2 03:13:10 70° NE 03:13:13 70° NE 03:23:00 10° SE visible
31 Aug 9.9 05:11:36 13° W 05:18:13 25° SW 05:25:49 10° S visible
01 Sep 9.6 02:54:19 50° ESE 02:54:19 50° ESE 03:01:22 10° SE visible
01 Sep 9.8 04:52:44 22° W 04:56:36 27° SW 05:04:29 10° S visible
02 Sep 10.3 02:35:12 31° ESE 02:35:12 31° ESE 02:39:44 10° SE visible
02 Sep 9.7 04:33:35 29° WSW 04:34:59 30° SW 04:43:08 10° S visible
03 Sep 10.8 02:15:50 19° ESE 02:15:50 19° ESE 02:18:04 10° SE visible
03 Sep 9.7 04:14:13 31° SW 04:14:13 31° SW 04:21:46 10° S visible
